Regional Weather Roundup
Issued by NWS

Home | Current Version | Previous Version | Text Only | Print | Product List | Glossary On
Versions: 1 2 3 4 5 6 7 8 9 10 11 12 13 14 15 16 17 18 19 20 21 22 23 24 25 26 27 28 29 30 31 32 33 34 35 36 37 38 39 40 41 42 43 44 45 46 47 48 49 50
000
ASUS43 KBIS 310710
RWRND

NORTH DAKOTA REGIONAL WEATHER ROUNDUP
NATIONAL WEATHER SERVICE BISMARCK ND
200 AM CDT SUN JUL 31 2016

NOTE: "FAIR" INDICATES FEW OR NO CLOUDS BELOW 12,000 FEET WITH NO
SIGNIFICANT WEATHER AND/OR OBSTRUCTIONS TO VISIBILITY.


NDZ001>003-009>011-017-310800-
NORTHWEST NORTH DAKOTA

CITY           SKY/WX    TMP DP  RH WIND       PRES   REMARKS
WILLISTON      CLOUDY    74  60  61 E6        29.72F
MINOT          CLOUDY    67  63  87 E7        29.77F
MINOT AFB      PTCLDY    63  61  94 SE7       29.76F
$$

NDZ018>021-031>035-040>046-310800-
SOUTHWEST NORTH DAKOTA

CITY           SKY/WX    TMP DP  RH WIND       PRES   REMARKS
BISMARCK       MOCLDY    71  63  75 S7        29.80F
DICKINSON      CLEAR     65  59  81 S6        29.76F
GARRISON         N/A     67  64  90 SE8       29.78F
HETTINGER ARPT CLOUDY    70  61  73 S10       29.81R
$$

NDZ004>008-012>016-024-026-027-054-310800-
NORTHEAST NORTH DAKOTA

CITY           SKY/WX    TMP DP  RH WIND       PRES   REMARKS
GRAND FORKS    PTCLDY    65  58  78 S9        29.88S
GRND FRKS AFB  CLEAR     65  58  76 S9        29.88S
DEVILS LAKE    PTCLDY    68  61  78 SE14      29.85S
$$

NDZ022-023-025-028>030-036>039-047>053-310800-
SOUTHEAST NORTH DAKOTA

CITY           SKY/WX    TMP DP  RH WIND       PRES   REMARKS
FARGO          CLEAR     68  57  68 SE12      29.90S
JAMESTOWN      CLEAR     65  61  87 SE12      29.86S
$$




USA.gov is the U.S. government's official web portal to all federal, state and local government web resources and services.